KC8YVF-1 Weather Reports


Display with metric or nautical units.
time (UTC)temp
F
wind
direction
speed
MPH
gust
MPH
rain 1hr
in
rain 24hr
in
rain mn
in
humidity
%
barometer
mb
20260509001008 63 270 0.0 0.0 0.00 0.00 0.00 35 992.6
20260509000508 63 270 0.0 0.0 0.00 0.00 0.00 34 992.5
20260509000007 63 225 0.0 0.0 0.00 0.00 0.00 34 992.5
20260508235506 63 248 0.0 0.0 0.00 0.00 0.00 34 992.5
20260508235006 63 248 0.0 0.0 0.00 0.00 0.00 34 992.5
20260508234006 64 158 0.0 0.0 0.00 0.00 0.00 34 992.5
20260508233506 64 248 0.0 0.0 0.00 0.00 0.00 33 992.5
20260508232514 64 225 0.0 0.0 0.00 0.00 0.00 33 992.6
20260508232007 64 248 0.0 0.0 0.00 0.00 0.00 33 992.8
20260508231507 64 270 0.0 0.0 0.00 0.00 0.00 33 992.8
20260508231013 65 225 0.0 0.0 0.00 0.00 0.00 33 992.8
20260508230506 65 225 0.0 0.0 0.00 0.00 0.00 32 992.8
20260508230007 66 225 0.0 0.0 0.00 0.00 0.00 32 992.8
20260508225514 66 180 0.0 0.0 0.00 0.00 0.00 32 992.8
20260508225006 66 225 0.0 0.0 0.00 0.00 0.00 33 992.8
20260508224006 66 248 0.0 0.0 0.00 0.00 0.00 32 992.8
20260508222507 66 270 0.0 0.0 0.00 0.00 0.00 32 993.2
20260508222008 66 225 0.0 0.0 0.00 0.00 0.00 32 993.2
20260508221006 66 180 0.0 0.0 0.00 0.00 0.00 32 993.2
20260508220507 66 225 0.0 0.0 0.00 0.00 0.00 32 993.2
20260508220007 66 248 0.0 0.0 0.00 0.00 0.00 32 993.2
20260508215507 66 180 0.0 0.0 0.00 0.00 0.00 33 993.2
20260508215006 66 203 0.0 0.0 0.00 0.00 0.00 32 993.2
20260508214506 66 225 0.0 0.0 0.00 0.00 0.00 32 993.2
20260508214014 66 180 0.0 0.0 0.00 0.00 0.00 32 993.2
20260508213507 67 270 0.0 0.0 0.00 0.00 0.00 32 993.2
20260508213006 67 270 0.0 0.0 0.00 0.00 0.00 33 993.2
20260508212507 67 180 0.0 0.0 0.00 0.00 0.00 33 993.2
20260508212007 67 203 0.0 0.0 0.00 0.00 0.00 32 993.2
20260508211506 67 270 0.0 0.0 0.00 0.00 0.00 33 993.2
20260508211006 67 203 0.0 0.0 0.00 0.00 0.00 32 993.4
20260508210506 67 225 0.0 0.0 0.00 0.00 0.00 33 993.5
20260508210006 67 248 0.0 0.0 0.00 0.00 0.00 33 993.5
20260508205514 67 225 0.0 0.0 0.00 0.00 0.00 34 993.5
20260508205007 66 225 0.0 0.0 0.00 0.00 0.00 33 993.5
20260508204506 66 203 0.0 0.0 0.00 0.00 0.00 33 993.5
20260508204006 66 225 0.0 0.0 0.00 0.00 0.00 33 993.9
20260508203007 66 203 0.0 0.0 0.00 0.00 0.00 34 993.9
20260508202507 66 203 0.0 0.0 0.00 0.00 0.00 34 993.9
20260508201506 65 315 0.0 0.0 0.00 0.00 0.00 35 994.1
20260508201006 65 248 0.0 0.0 0.00 0.00 0.00 35 994.2
20260508200507 65 293 0.0 0.0 0.00 0.00 0.00 34 994.2
20260508195506 66 225 0.0 0.0 0.00 0.00 0.00 34 994.4
20260508195006 67 225 0.0 0.0 0.00 0.00 0.00 34 994.2
20260508194507 67 180 0.0 0.0 0.00 0.00 0.00 34 994.5
20260508194014 67 180 0.0 0.0 0.00 0.00 0.00 35 994.5
20260508193506 67 180 0.0 0.0 0.00 0.00 0.00 35 994.8
20260508193007 67 180 0.0 0.0 0.00 0.00 0.00 35 994.6
20260508192507 67 248 0.0 0.0 0.00 0.00 0.00 35 994.9
20260508191506 66 270 0.0 0.0 0.00 0.00 0.00 36 994.9
20260508191014 66 270 0.0 0.0 0.00 0.00 0.00 36 995.2
20260508190506 66 225 0.0 0.0 0.00 0.00 0.00 36 995.2
20260508190006 65 270 0.0 0.0 0.00 0.00 0.00 35 995.2
20260508185506 65 248 0.0 0.0 0.00 0.00 0.00 35 995.2
20260508185006 65 248 0.0 0.0 0.00 0.00 0.00 36 995.2
20260508184008 65 180 0.0 0.0 0.00 0.00 0.00 36 995.3
20260508183507 64 270 0.0 0.0 0.00 0.00 0.00 36 995.2
20260508183007 64 158 0.0 0.0 0.00 0.00 0.00 36 995.5
20260508182513 64 225 0.0 0.0 0.00 0.00 0.00 36 995.5
20260508181007 64 248 0.0 0.0 0.00 0.00 0.00 37 995.7
20260508180507 64 203 0.0 0.0 0.00 0.00 0.00 36 995.5
20260508175506 64 293 0.0 0.0 0.00 0.00 0.00 37 995.9
20260508175006 64 225 0.0 0.0 0.00 0.00 0.00 38 995.9
20260508174007 64 270 0.0 0.0 0.00 0.00 0.00 38 995.9
20260508173506 63 270 0.0 0.0 0.00 0.00 0.00 39 996.2
20260508172507 63 180 0.0 0.0 0.00 0.00 0.00 39 996.2
20260508172007 63 270 0.0 0.0 0.00 0.00 0.00 38 996.4
20260508171014 63 203 0.0 0.0 0.00 0.00 0.00 39 996.6
20260508170506 63 270 0.0 0.0 0.00 0.00 0.00 39 996.6
20260508170007 63 180 0.0 0.0 0.00 0.00 0.00 42 996.6
20260508165507 63 180 0.0 0.0 0.00 0.00 0.00 42 996.6
20260508165007 62 315 0.0 0.0 0.00 0.00 0.00 42 996.6
20260508164013 61 158 0.0 0.0 0.00 0.00 0.00 42 996.9
20260508163507 61 248 0.0 0.0 0.00 0.00 0.00 42 996.9
20260508163006 61 248 0.0 0.0 0.00 0.00 0.00 43 997.2
20260508162506 60 203 0.0 0.0 0.00 0.00 0.00 43 996.9
20260508162007 60 180 0.0 0.0 0.00 0.00 0.00 44 996.9
20260508161507 60 248 0.0 0.0 0.00 0.00 0.00 44 997.0
20260508161014 59 158 0.0 0.0 0.00 0.00 0.00 45 997.2
20260508160506 59 180 0.0 0.0 0.00 0.00 0.00 46 997.2
20260508160006 58 225 0.0 0.0 0.00 0.00 0.00 47 997.2
20260508155508 58 225 0.0 0.0 0.00 0.00 0.00 47 997.2
20260508155007 57 270 0.0 0.0 0.00 0.00 0.00 47 997.2
20260508154507 57 248 0.0 0.0 0.00 0.00 0.00 49 997.2
20260508154014 56 315 0.0 0.0 0.00 0.00 0.00 50 997.4
20260508153507 55 293 0.0 0.0 0.00 0.00 0.00 50 997.6
20260508152506 54 248 0.0 0.0 0.00 0.00 0.00 51 997.6
20260508152006 54 158 0.0 0.0 0.00 0.00 0.00 53 997.6
20260508151008 53 248 0.0 0.0 0.00 0.00 0.00 55 997.6
20260508150507 53 158 0.0 0.0 0.00 0.00 0.00 56 997.6
20260508150007 53 180 0.0 0.0 0.00 0.00 0.00 56 997.6
20260508145506 53 248 0.0 0.0 0.00 0.00 0.00 57 997.6
20260508145007 52 180 0.0 0.0 0.00 0.00 0.00 57 997.6
20260508144014 52 180 0.0 0.0 0.00 0.00 0.00 59 997.8
20260508143508 51 248 0.0 0.0 0.00 0.00 0.00 60 997.7
20260508143006 51 248 0.0 0.0 0.00 0.00 0.00 61 997.9
20260508142514 51 225 0.0 0.0 0.00 0.00 0.00 60 997.9
20260508141508 51 248 0.0 0.0 0.00 0.00 0.00 61 997.9
20260508140848 50 225 0.0 0.0 0.00 0.00 0.00 62 998.0
20260508135508 50 158 0.0 0.0 0.00 0.00 0.00 64 997.9
20260508135349 50 248 0.0 0.0 0.00 0.00 0.00 64 997.9
20260508135007 50 180 0.0 0.0 0.00 0.00 0.00 64 997.9
20260508134506 50 158 0.0 0.0 0.00 0.00 0.00 64 997.9
20260508134007 50 203 0.0 0.0 0.00 0.00 0.00 65 998.3
20260508133849 50 203 0.0 0.0 0.00 0.00 0.00 65 998.2
20260508133507 50 158 0.0 0.0 0.00 0.00 0.00 65 998.2
20260508133006 50 248 0.0 0.0 0.00 0.00 0.00 66 998.0
20260508132507 50 203 0.0 0.0 0.00 0.00 0.00 66 997.9
20260508132348 50 203 0.0 0.0 0.00 0.00 0.00 66 998.1
20260508132007 50 225 0.0 0.0 0.00 0.00 0.00 66 998.0
20260508131507 50 225 0.0 0.0 0.00 0.00 0.00 68 998.0
20260508131007 50 270 0.0 0.0 0.00 0.00 0.00 68 998.3
20260508130848 49 248 0.0 0.0 0.00 0.00 0.00 68 998.3
20260508130506 49 203 0.0 0.0 0.00 0.00 0.00 69 998.3
20260508130007 49 225 0.0 0.0 0.00 0.00 0.00 70 998.3
20260508125506 48 203 0.0 0.0 0.00 0.00 0.00 71 998.3
20260508125349 48 180 0.0 0.0 0.00 0.00 0.00 72 998.3
20260508124506 47 180 0.0 0.0 0.00 0.00 0.00 74 998.3
20260508124006 47 180 0.0 0.0 0.00 0.00 0.00 75 998.1
20260508123849 47 248 0.0 0.0 0.00 0.00 0.00 76 997.9
20260508123508 46 248 0.0 0.0 0.00 0.00 0.00 76 997.9
20260508123006 46 203 0.0 0.0 0.00 0.00 0.00 77 998.2
20260508122349 45 180 0.0 0.0 0.00 0.00 0.00 78 998.2
20260508121007 43 248 0.0 0.0 0.00 0.00 0.00 81 997.9
20260508120849 43 248 0.0 0.0 0.00 0.00 0.00 82 997.9
20260508120508 42 248 0.0 0.0 0.00 0.00 0.00 82 997.9
20260508120007 41 293 0.0 0.0 0.00 0.00 0.00 83 997.9
20260508115507 40 293 0.0 0.0 0.00 0.00 0.00 83 997.9
20260508115348 39 293 0.0 0.0 0.00 0.00 0.00 84 997.9
20260508115007 38 293 0.0 0.0 0.00 0.00 0.00 83 997.9
20260508114506 38 293 0.0 0.0 0.00 0.00 0.00 83 997.9
20260508114006 36 293 0.0 0.0 0.00 0.00 0.00 82 997.8
20260508113850 36 293 0.0 0.0 0.00 0.00 0.00 82 997.8
20260508113507 36 293 0.0 0.0 0.00 0.00 0.00 81 997.6
20260508112507 34 293 0.0 0.0 0.00 0.00 0.00 80 997.6
20260508112350 34 293 0.0 0.0 0.00 0.00 0.00 80 997.6
20260508112007 34 293 0.0 0.0 0.00 0.00 0.00 80 997.6
20260508111507 34 293 0.0 0.0 0.00 0.00 0.00 80 997.6
20260508111007 34 293 0.0 0.0 0.00 0.00 0.00 80 997.6
20260508110850 34 293 0.0 0.0 0.00 0.00 0.00 80 997.6
20260508105349 34 293 0.0 0.0 0.00 0.00 0.00 79 997.6
20260508105006 34 293 0.0 0.0 0.00 0.00 0.00 79 997.6
20260508104508 34 293 0.0 0.0 0.00 0.00 0.00 79 997.6
20260508104008 34 293 0.0 0.0 0.00 0.00 0.00 79 997.6
20260508103848 34 293 0.0 0.0 0.00 0.00 0.00 79 997.8
20260508103507 34 293 0.0 0.0 0.00 0.00 0.00 78 997.9
20260508102506 34 293 0.0 0.0 0.00 0.00 0.00 78 997.6
20260508102349 34 293 0.0 0.0 0.00 0.00 0.00 78 997.6
20260508101507 34 293 0.0 0.0 0.00 0.00 0.00 78 997.6
20260508101006 34 293 0.0 0.0 0.00 0.00 0.00 78 997.9
20260508100850 34 293 0.0 0.0 0.00 0.00 0.00 78 997.8
20260508100007 35 293 0.0 0.0 0.00 0.00 0.00 77 997.6
20260508095508 35 293 0.0 0.0 0.00 0.00 0.00 77 997.7
20260508095350 35 293 0.0 0.0 0.00 0.00 0.00 77 997.7
20260508094507 35 293 0.0 0.0 0.00 0.00 0.00 77 997.8
20260508093849 35 293 0.0 0.0 0.00 0.00 0.00 77 997.9
20260508093506 35 293 0.0 0.0 0.00 0.00 0.00 77 997.9
20260508093007 36 293 0.0 0.0 0.00 0.00 0.00 77 997.9
20260508092507 36 293 0.0 0.0 0.00 0.00 0.00 77 997.8
20260508092349 36 293 0.0 0.0 0.00 0.00 0.00 76 997.8
20260508092008 36 293 0.0 0.0 0.00 0.00 0.00 76 997.9
20260508091507 36 293 0.0 0.0 0.00 0.00 0.00 76 997.9
20260508090850 36 293 0.0 0.0 0.00 0.00 0.00 76 997.9
20260508090507 36 293 0.0 0.0 0.00 0.00 0.00 76 997.9
20260508090007 37 293 0.0 0.0 0.00 0.00 0.00 76 997.9
20260508085507 37 293 0.0 0.0 0.00 0.00 0.00 76 997.9
20260508085348 37 293 0.0 0.0 0.00 0.00 0.00 76 997.9
20260508084507 37 293 0.0 0.0 0.00 0.00 0.00 76 997.9
20260508084006 37 293 0.0 0.0 0.00 0.00 0.00 75 997.9
20260508083849 37 293 0.0 0.0 0.00 0.00 0.00 75 997.9
20260508083508 37 293 0.0 0.0 0.00 0.00 0.00 75 997.9
20260508082506 38 293 0.0 0.0 0.00 0.00 0.00 75 997.9
20260508082349 38 293 0.0 0.0 0.00 0.00 0.00 75 997.9
20260508082007 38 293 0.0 0.0 0.00 0.00 0.00 74 997.9
20260508081507 38 293 0.0 0.0 0.00 0.00 0.00 74 997.8
20260508081008 38 293 0.0 0.0 0.00 0.00 0.00 74 997.9
20260508080849 39 293 0.0 0.0 0.00 0.00 0.00 74 997.9
20260508080506 39 293 0.0 0.0 0.00 0.00 0.00 74 997.9
20260508075507 39 293 0.0 0.0 0.00 0.00 0.00 74 997.9
20260508075349 39 293 0.0 0.0 0.00 0.00 0.00 74 997.9
20260508075008 39 293 0.0 0.0 0.00 0.00 0.00 73 997.9
20260508074007 40 293 0.0 0.0 0.00 0.00 0.00 73 997.9
20260508073850 40 293 0.0 0.0 0.00 0.00 0.00 73 997.9
20260508073506 40 293 0.0 0.0 0.00 0.00 0.00 73 997.9
20260508072508 41 293 0.0 0.0 0.00 0.00 0.00 73 997.9
20260508072349 41 293 0.0 0.0 0.00 0.00 0.00 73 997.9
20260508072007 41 293 0.0 0.0 0.00 0.00 0.00 73 997.9
20260508071507 42 293 0.0 0.0 0.00 0.00 0.00 73 998.2
20260508071007 42 293 0.0 0.0 0.00 0.00 0.00 73 997.9
20260508070849 42 293 0.0 0.0 0.00 0.00 0.00 73 998.0
20260508070007 42 293 0.0 0.0 0.00 0.00 0.00 73 998.3
20260508065507 43 293 0.0 0.0 0.00 0.00 0.00 73 998.1
20260508065350 43 293 0.0 0.0 0.00 0.00 0.00 72 998.2
20260508065008 43 293 0.0 0.0 0.00 0.00 0.00 72 998.2
20260508064008 43 293 0.0 0.0 0.00 0.00 0.00 71 998.2
20260508063849 43 293 0.0 0.0 0.00 0.00 0.00 71 998.1
20260508063007 44 293 0.0 0.0 0.00 0.00 0.00 70 998.3
20260508062506 44 293 0.0 0.0 0.00 0.00 0.00 70 998.3
20260508062349 44 293 0.0 0.0 0.00 0.00 0.00 70 998.3
20260508062006 44 293 0.0 0.0 0.00 0.00 0.00 70 998.3
20260508061507 44 293 0.0 0.0 0.00 0.00 0.00 70 998.3
20260508060849 44 293 0.0 0.0 0.00 0.00 0.00 69 998.3
20260508060508 44 293 0.0 0.0 0.00 0.00 0.00 69 997.9
20260508055349 44 293 0.0 0.0 0.00 0.00 0.00 69 997.9
20260508055008 44 293 0.0 0.0 0.00 0.00 0.00 69 997.9
20260508054507 45 293 0.0 0.0 0.00 0.00 0.00 69 997.9
20260508053848 45 293 0.0 0.0 0.00 0.00 0.00 68 997.9
20260508053008 45 293 0.0 0.0 0.00 0.00 0.00 68 997.9
20260508052507 45 293 0.0 0.0 0.00 0.00 0.00 68 997.9
20260508052349 45 293 0.0 0.0 0.00 0.00 0.00 68 997.9
20260508052007 45 293 0.0 0.0 0.00 0.00 0.00 68 997.9
20260508050849 45 293 0.0 0.0 0.00 0.00 0.00 67 998.3
20260508050508 45 293 0.0 0.0 0.00 0.00 0.00 67 998.2
20260508050008 45 293 0.0 0.0 0.00 0.00 0.00 67 998.3
20260508045508 45 293 0.0 0.0 0.00 0.00 0.00 66 998.1
20260508045348 45 293 0.0 0.0 0.00 0.00 0.00 66 998.3
20260508045008 46 293 0.0 0.0 0.00 0.00 0.00 66 998.1
20260508044007 46 293 0.0 0.0 0.00 0.00 0.00 66 998.3
20260508043850 46 293 0.0 0.0 0.00 0.00 0.00 67 998.3
20260508043507 46 293 0.0 0.0 0.00 0.00 0.00 67 998.1
20260508042350 46 270 0.0 0.0 0.00 0.00 0.00 66 998.2
20260508042007 46 270 0.0 0.0 0.00 0.00 0.00 65 998.1
20260508041009 46 270 0.0 0.0 0.00 0.00 0.00 64 998.3
20260508040849 46 270 0.0 0.0 0.00 0.00 0.00 64 998.3
20260508040507 46 270 0.0 0.0 0.00 0.00 0.00 64 998.3
20260508040008 46 270 0.0 0.0 0.00 0.00 0.00 64 998.3
20260508035350 46 270 0.0 0.0 0.00 0.00 0.00 64 998.0
20260508035006 46 270 0.0 0.0 0.00 0.00 0.00 63 997.9
20260508034506 46 270 0.0 0.0 0.00 0.00 0.00 63 998.3
20260508033850 47 270 0.0 0.0 0.00 0.00 0.00 63 997.9
20260508033506 47 270 0.0 0.0 0.00 0.00 0.00 63 998.1
20260508033007 47 270 0.0 0.0 0.00 0.00 0.00 62 998.2
20260508032508 47 270 0.0 0.0 0.00 0.00 0.00 62 998.0
20260508032349 47 270 0.0 0.0 0.00 0.00 0.00 62 998.0
20260508031507 47 270 0.0 0.0 0.00 0.00 0.00 62 998.2
20260508031008 47 270 0.0 0.0 0.00 0.00 0.00 62 997.9
20260508030849 47 270 0.0 0.0 0.00 0.00 0.00 62 997.9
20260508030007 47 270 0.0 0.0 0.00 0.00 0.00 61 998.3
20260508025506 47 270 0.0 0.0 0.00 0.00 0.00 60 998.2
20260508025349 47 270 0.0 0.0 0.00 0.00 0.00 60 998.2
20260508025008 47 270 0.0 0.0 0.00 0.00 0.00 60 997.9
20260508024507 47 270 0.0 0.0 0.00 0.00 0.00 60 998.3
20260508024008 47 270 0.0 0.0 0.00 0.00 0.00 59 998.3
20260508023849 47 270 0.0 0.0 0.00 0.00 0.00 59 998.1
20260508022349 47 270 0.0 0.0 0.00 0.00 0.00 59 997.9
20260508022007 47 270 0.0 0.0 0.00 0.00 0.00 59 997.9
20260508021507 47 270 0.0 0.0 0.00 0.00 0.00 59 997.9
20260508021007 47 270 0.0 0.0 0.00 0.00 0.00 59 997.9
20260508020850 47 270 0.0 0.0 0.00 0.00 0.00 59 997.9
20260508020508 47 270 0.0 0.0 0.00 0.00 0.00 59 997.9
20260508020007 47 270 0.0 0.0 0.00 0.00 0.00 59 997.8
20260508015507 47 293 0.0 0.0 0.00 0.00 0.00 59 997.6
20260508015350 47 315 0.0 0.0 0.00 0.00 0.00 59 997.6
20260508015006 47 338 0.0 0.0 0.00 0.00 0.00 59 997.6
20260508014508 47 293 0.0 0.0 0.00 0.00 0.00 59 997.6
20260508013849 47 293 0.0 0.0 0.00 0.00 0.00 59 997.6
20260508013508 47 338 0.0 0.0 0.00 0.00 0.00 58 997.6
20260508013008 47 293 0.0 0.0 0.00 0.00 0.00 58 997.6
20260508012350 47 0 0.0 0.0 0.00 0.00 0.00 57 997.6
20260508012006 47 338 0.0 0.0 0.00 0.00 0.00 57 997.6
20260508011507 47 293 0.0 0.0 0.00 0.00 0.00 56 997.8
20260508010849 47 293 0.0 0.0 0.00 0.00 0.00 56 997.6
20260508010508 47 270 0.0 0.0 0.00 0.00 0.00 56 997.6
20260508005507 47 248 0.0 0.0 0.00 0.00 0.00 56 997.6
20260508005348 47 338 0.0 0.0 0.00 0.00 0.00 56 997.6
20260508005008 48 338 0.0 0.0 0.00 0.00 0.00 56 997.6
20260508004007 48 270 0.0 0.0 0.00 0.00 0.00 55 997.6
20260508003848 48 270 0.0 0.0 0.00 0.00 0.00 55 997.8
20260508003008 49 270 0.0 0.0 0.00 0.00 0.00 54 997.7
20260508002508 49 315 0.0 0.0 0.00 0.00 0.00 53 997.9
20260508002349 49 315 0.0 0.0 0.00 0.00 0.00 52 997.9